timestamp,surface_pressure_avg,surface_temp_avg,battery_voltage,lat,long
2018-07-31 00:00:00+00:00,329.8497,17.2,13.13,47.84626,-54.09684
2018-07-31 00:10:00+00:00,337.6346,17.2,13.05,47.84626,-54.09684
2018-07-31 00:20:00+00:00,345.7846,17.2,13.13,47.84626,-54.09684
2018-07-31 00:30:00+00:00,347.7246,17.2,13.13,47.84626,-54.09684
2018-07-31 00:40:00+00:00,349.153,17.2,13.13,47.84626,-54.09684
2018-07-31 00:50:00+00:00,353.5963,17.2,13.13,47.84626,-54.09684
2018-07-31 01:00:00+00:00,358.0012,17.2,13.05,47.84626,-54.09684
2018-07-31 01:10:00+00:00,360.2445,17.2,13.05,47.84626,-54.09684
2018-07-31 01:20:00+00:00,362.9146,17.2,13.05,47.84626,-54.09684
2018-07-31 01:30:00+00:00,365.2579,17.2,13.13,47.84626,-54.09684
2018-07-31 01:40:00+00:00,362.3996,17.2,13.13,47.84626,-54.09684
2018-07-31 01:50:00+00:00,360.3146,17.2,13.13,47.84626,-54.09684
2018-07-31 02:00:00+00:00,359.7696,17.2,13.05,47.84626,-54.09684
2018-07-31 02:10:00+00:00,356.5146,17.2,12.97,47.84626,-54.09684
2018-07-31 02:20:00+00:00,354.3196,17.2,13.05,47.84626,-54.09684
2018-07-31 02:30:00+00:00,354.0663,17.2,13.05,47.84626,-54.09684
2018-07-31 02:40:00+00:00,349.6213,17.2,13.13,47.84626,-54.09684
2018-07-31 02:50:00+00:00,345.4981,17.2,13.13,47.84626,-54.09684
2018-07-31 03:00:00+00:00,342.5847,17.2,13.05,47.84626,-54.09684
2018-07-31 03:10:00+00:00,337.6246,17.19,12.97,47.84626,-54.09684
2018-07-31 03:20:00+00:00,328.1297,17.19,13.05,47.84626,-54.09684
2018-07-31 03:30:00+00:00,326.288,17.1,13.05,47.84626,-54.09684
2018-07-31 03:40:00+00:00,322.3814,17.1,13.05,47.84626,-54.09684
2018-07-31 03:50:00+00:00,310.6096,17.13,13.05,47.84626,-54.09684
2018-07-31 04:00:00+00:00,299.8713,17.13,13.05,47.84626,-54.09684
2018-07-31 04:10:00+00:00,297.9997,17.12,12.97,47.84626,-54.09684
2018-07-31 04:20:00+00:00,293.408,17.15,13.05,47.84626,-54.09684
2018-07-31 04:30:00+00:00,281.2513,17.25,13.05,47.84626,-54.09684
2018-07-31 04:40:00+00:00,272.088,17.3,13.05,47.84626,-54.09684
2018-07-31 04:50:00+00:00,269.6564,17.29,13.05,47.84626,-54.09684
2018-07-31 05:00:00+00:00,266.4715,17.21,13.05,47.84626,-54.09684
2018-07-31 05:10:00+00:00,255.8932,17.27,12.97,47.84626,-54.09684
2018-07-31 05:20:00+00:00,248.5498,17.29,12.97,47.84626,-54.09684
2018-07-31 05:30:00+00:00,246.6747,17.26,13.05,47.84626,-54.09684
2018-07-31 05:40:00+00:00,239.4231,17.23,13.05,47.84626,-54.09684
2018-07-31 05:50:00+00:00,229.0131,17.23,13.05,47.84626,-54.09684
2018-07-31 06:00:00+00:00,222.2331,17.2,12.97,47.84626,-54.09684
2018-07-31 06:10:00+00:00,218.3981,17.2,12.89,47.84626,-54.09684
2018-07-31 06:20:00+00:00,210.5731,17.2,12.97,47.84626,-54.09684
2018-07-31 06:30:00+00:00,202.4614,17.2,12.97,47.84626,-54.09684
2018-07-31 06:40:00+00:00,197.3948,17.2,12.97,47.84626,-54.09684
2018-07-31 06:50:00+00:00,194.2181,17.1,13.05,47.84626,-54.09684
2018-07-31 07:00:00+00:00,192.6514,16.67,12.97,47.84626,-54.09684
2018-07-31 07:10:00+00:00,189.8531,16.25,12.89,47.84626,-54.09684
2018-07-31 07:20:00+00:00,190.5232,15.9,12.97,47.84626,-54.09684
2018-07-31 07:30:00+00:00,194.0681,15.98,12.97,47.84626,-54.09684
2018-07-31 07:40:00+00:00,193.0498,16.0,12.97,47.84626,-54.09684
2018-07-31 07:50:00+00:00,193.3048,15.95,12.97,47.84626,-54.09684
2018-07-31 08:00:00+00:00,198.3598,15.99,12.97,47.84626,-54.09684
2018-07-31 08:10:00+00:00,204.8581,15.98,12.89,47.84626,-54.09684
2018-07-31 08:20:00+00:00,204.2448,15.9,12.97,47.84626,-54.09684
2018-07-31 08:30:00+00:00,202.4214,15.9,12.97,47.84626,-54.09684
2018-07-31 08:40:00+00:00,209.8348,15.9,12.97,47.84626,-54.09684
2018-07-31 08:50:00+00:00,215.0431,15.95,12.97,47.84626,-54.09684
2018-07-31 09:00:00+00:00,216.3114,15.97,12.97,47.84626,-54.09684
2018-07-31 09:10:00+00:00,219.9331,16.02,12.97,47.84626,-54.09684
2018-07-31 09:20:00+00:00,225.3381,16.2,13.13,47.84626,-54.09684
2018-07-31 09:30:00+00:00,228.0598,16.0,13.21,47.84626,-54.09684
2018-07-31 09:40:00+00:00,230.7748,15.9,13.44,47.84626,-54.09684
2018-07-31 09:50:00+00:00,232.0814,15.88,13.68,47.84626,-54.09684
2018-07-31 10:00:00+00:00,234.4797,15.8,13.76,47.84626,-54.09684
2018-07-31 10:10:00+00:00,238.3364,15.7,13.84,47.84626,-54.09684
2018-07-31 10:20:00+00:00,242.5247,15.4,14.08,47.84626,-54.09684
2018-07-31 10:30:00+00:00,247.4881,15.3,14.24,47.84626,-54.09684
2018-07-31 10:40:00+00:00,250.5714,15.37,14.4,47.84626,-54.09684
2018-07-31 10:50:00+00:00,254.3648,15.3,14.56,47.84626,-54.09684
2018-07-31 11:00:00+00:00,259.1914,15.2,14.48,47.84626,-54.09684
2018-07-31 11:10:00+00:00,267.188,15.18,14.4,47.84626,-54.09684
2018-07-31 11:20:00+00:00,275.1298,15.2,14.64,47.84626,-54.09684
2018-07-31 11:30:00+00:00,281.3564,15.23,14.56,47.84626,-54.09684
2018-07-31 11:40:00+00:00,288.1713,15.4,14.64,47.84626,-54.09684
2018-07-31 11:50:00+00:00,294.8563,15.49,14.64,47.84626,-54.09684
2018-07-31 12:00:00+00:00,301.6231,15.4,14.56,47.84626,-54.09684
2018-07-31 12:10:00+00:00,309.313,15.2,14.48,47.84626,-54.09684
2018-07-31 12:20:00+00:00,316.5897,15.2,14.64,47.84626,-54.09684
2018-07-31 12:30:00+00:00,320.6297,15.19,14.56,47.84626,-54.09684
2018-07-31 12:40:00+00:00,323.4913,15.18,14.56,47.84626,-54.09684
2018-07-31 12:50:00+00:00,327.923,15.16,14.56,47.84626,-54.09684
2018-07-31 13:00:00+00:00,330.7113,15.17,14.48,47.84626,-54.09684
2018-07-31 13:10:00+00:00,334.1796,15.15,14.48,47.84626,-54.09684
2018-07-31 13:20:00+00:00,339.098,15.17,14.56,47.84626,-54.09684
2018-07-31 13:30:00+00:00,342.7847,15.19,14.56,47.84626,-54.09684
2018-07-31 13:40:00+00:00,341.7064,15.2,14.56,47.84626,-54.09684
2018-07-31 13:50:00+00:00,345.5246,15.2,14.56,47.84626,-54.09684
2018-07-31 14:00:00+00:00,345.9097,15.3,14.48,47.84626,-54.09684
2018-07-31 14:10:00+00:00,344.483,15.38,14.4,47.84626,-54.09684
2018-07-31 14:20:00+00:00,340.0264,15.44,14.48,47.84626,-54.09684
2018-07-31 14:30:00+00:00,339.1163,15.49,14.48,47.84626,-54.09684
2018-07-31 14:40:00+00:00,336.8979,15.56,14.48,47.84626,-54.09684
2018-07-31 14:50:00+00:00,332.4197,15.69,14.48,47.84626,-54.09684
2018-07-31 15:00:00+00:00,330.933,15.6,14.4,47.84626,-54.09684
2018-07-31 15:10:00+00:00,328.7513,15.53,14.24,47.84626,-54.09684
2018-07-31 15:20:00+00:00,323.478,15.5,14.4,47.84626,-54.09684
2018-07-31 15:30:00+00:00,320.2747,15.43,14.4,47.84626,-54.09684
2018-07-31 15:40:00+00:00,317.8147,15.3,14.4,47.84626,-54.09684
2018-07-31 15:50:00+00:00,311.3797,15.26,14.32,47.84626,-54.09684
2018-07-31 16:00:00+00:00,304.668,15.2,14.32,47.84626,-54.09684
2018-07-31 16:10:00+00:00,300.3747,14.9,14.24,47.84626,-54.09684
2018-07-31 16:20:00+00:00,294.6713,14.93,14.08,47.84626,-54.09684
2018-07-31 16:30:00+00:00,287.4263,15.1,14.16,47.84626,-54.09684
2018-07-31 16:40:00+00:00,282.6431,15.12,14.24,47.84626,-54.09684
2018-07-31 16:50:00+00:00,275.498,15.24,14.16,47.84626,-54.09684
2018-07-31 17:00:00+00:00,266.9914,15.38,14.24,47.84626,-54.09684
2018-07-31 17:10:00+00:00,261.2131,15.64,14.16,47.84626,-54.09684
2018-07-31 17:20:00+00:00,257.0815,15.8,14.08,47.84626,-54.09684
2018-07-31 17:30:00+00:00,248.2181,15.9,14.08,47.84626,-54.09684
2018-07-31 17:40:00+00:00,240.6931,16.09,14.08,47.84626,-54.09684
2018-07-31 17:50:00+00:00,235.7114,16.15,14.0,47.84626,-54.09684
2018-07-31 18:00:00+00:00,228.9764,16.27,13.92,47.84626,-54.09684
2018-07-31 18:10:00+00:00,221.6431,16.49,13.84,47.84626,-54.09684
2018-07-31 18:20:00+00:00,215.4381,16.6,14.0,47.84626,-54.09684
2018-07-31 18:30:00+00:00,209.2914,16.4,14.0,47.84626,-54.09684
2018-07-31 18:40:00+00:00,204.0581,16.13,13.92,47.84626,-54.09684
2018-07-31 18:50:00+00:00,201.5614,16.3,13.92,47.84626,-54.09684
2018-07-31 19:00:00+00:00,199.3298,15.76,13.92,47.84626,-54.09684
2018-07-31 19:10:00+00:00,195.3631,15.8,13.76,47.84626,-54.09684
2018-07-31 19:20:00+00:00,190.6964,16.27,13.84,47.84626,-54.09684
2018-07-31 19:30:00+00:00,188.6148,16.3,13.84,47.84626,-54.09684
2018-07-31 19:40:00+00:00,190.7865,16.2,13.92,47.84626,-54.09684
2018-07-31 19:50:00+00:00,191.9031,16.2,13.92,47.84626,-54.09684
2018-07-31 20:00:00+00:00,193.8231,16.22,13.84,47.84626,-54.09684
2018-07-31 20:10:00+00:00,198.2848,16.2,13.76,47.84626,-54.09684
2018-07-31 20:20:00+00:00,201.3714,16.2,13.84,47.84626,-54.09684
2018-07-31 20:30:00+00:00,201.5348,16.27,13.84,47.84626,-54.09684
2018-07-31 20:40:00+00:00,203.9932,16.4,13.84,47.84626,-54.09684
2018-07-31 20:50:00+00:00,210.6898,16.59,13.84,47.84626,-54.09684
2018-07-31 21:00:00+00:00,215.5014,16.88,13.84,47.84626,-54.09684
2018-07-31 21:10:00+00:00,218.6131,17.05,13.68,47.84626,-54.09684
2018-07-31 21:20:00+00:00,222.3781,17.13,13.76,47.84626,-54.09684
2018-07-31 21:30:00+00:00,227.3764,17.2,13.68,47.84626,-54.09684
2018-07-31 21:40:00+00:00,233.0048,17.04,13.68,47.84626,-54.09684
2018-07-31 21:50:00+00:00,238.7631,16.58,13.68,47.84626,-54.09684
2018-07-31 22:00:00+00:00,243.6898,15.77,13.68,47.84626,-54.09684
2018-07-31 22:10:00+00:00,247.8297,15.62,13.53,47.84626,-54.09684
2018-07-31 22:20:00+00:00,250.4581,15.71,13.53,47.84626,-54.09684
2018-07-31 22:30:00+00:00,253.3114,15.8,13.44,47.84626,-54.09684
2018-07-31 22:40:00+00:00,259.7781,15.81,13.44,47.84626,-54.09684
2018-07-31 22:50:00+00:00,266.508,15.9,13.37,47.84626,-54.09684
2018-07-31 23:00:00+00:00,271.0814,15.9,13.29,47.84626,-54.09684
2018-07-31 23:10:00+00:00,274.6147,15.9,13.21,47.84626,-54.09684
2018-07-31 23:20:00+00:00,279.7513,15.8,13.21,47.84626,-54.09684
2018-07-31 23:30:00+00:00,286.4031,15.9,13.21,47.84626,-54.09684
2018-07-31 23:40:00+00:00,292.248,16.21,13.21,47.84626,-54.09684
2018-07-31 23:50:00+00:00,296.7864,16.2,13.21,47.84626,-54.09684
